FW8819 Weather Reports


time (UTC)temp
F
wind
direction
speed
knots
gust
knots
rain 1hr
in
rain 24hr
in
rain mn
in
humidity
%
barometer
mb
20260906221545 85 167 8.7 14.8 0.00 0.00 0.00 29 1018.9
20260906221019 85 203 8.7 14.8 0.00 0.00 0.00 29 1018.9
20260906220518 86 217 7.0 15.6 0.00 0.00 0.00 28 1019.1
20260906220114 87 192 8.7 15.6 0.00 0.00 0.00 27 1019.1
20260906215524 87 221 10.4 15.6 0.00 0.00 0.00 28 1019.1
20260906215021 85 225 7.0 12.2 0.00 0.00 0.00 29 1019.2
20260906214539 84 169 6.1 15.6 0.00 0.00 0.00 32 1019.3
20260906214021 84 125 7.0 15.6 0.00 0.00 0.00 32 1019.4
20260906213520 84 117 8.7 17.4 0.00 0.00 0.00 35 1019.5
20260906213048 84 128 10.4 17.4 0.00 0.00 0.00 33 1019.6
20260906212519 84 89 7.8 14.8 0.00 0.00 0.00 31 1019.6
20260906212020 84 107 5.2 14.8 0.00 0.00 0.00 33 1019.6
20260906211541 84 99 5.2 14.8 0.00 0.00 0.00 31 1019.7
20260906211017 84 174 7.8 20.0 0.00 0.00 0.00 31 1019.9
20260906210526 85 165 12.2 20.0 0.00 0.00 0.00 32 1020.0
20260906210054 86 149 7.8 16.5 0.00 0.00 0.00 31 1019.7
20260906205518 85 94 7.8 18.2 0.00 0.00 0.00 32 1019.9
20260906205019 83 99 9.6 18.2 0.00 0.00 0.00 32 1020.0
20260906204538 83 91 7.0 13.9 0.00 0.00 0.00 33 1020.0
20260906204019 83 89 7.8 17.4 0.00 0.00 0.00 33 1020.1
20260906203519 83 101 9.6 17.4 0.00 0.00 0.00 32 1020.2
20260906203041 83 91 7.8 17.4 0.00 0.00 0.00 32 1020.3
20260906202521 83 90 6.1 10.4 0.00 0.00 0.00 31 1020.3
20260906202020 83 100 3.5 13.9 0.00 0.00 0.00 32 1020.3
20260906201539 83 85 5.2 13.9 0.00 0.00 0.00 31 1020.5
20260906201020 83 127 7.8 13.9 0.00 0.00 0.00 32 1020.6
20260906200521 83 124 6.1 12.2 0.00 0.00 0.00 31 1020.6
20260906200048 84 80 7.0 18.2 0.00 0.00 0.00 31 1020.6
20260906195518 84 113 7.8 18.2 0.00 0.00 0.00 30 1020.7
20260906195021 84 140 11.3 18.2 0.00 0.00 0.00 31 1020.7
20260906194547 84 121 8.7 17.4 0.00 0.00 0.00 31 1020.7
20260906194020 83 161 9.6 17.4 0.00 0.00 0.00 31 1020.8
20260906193518 83 94 5.2 13.9 0.00 0.00 0.00 32 1020.8
20260906193038 83 111 7.0 14.8 0.00 0.00 0.00 31 1021.0
20260906192519 82 146 7.8 14.8 0.00 0.00 0.00 32 1021.0
20260906192018 82 69 4.3 13.0 0.00 0.00 0.00 31 1021.0
20260906191540 82 128 6.1 13.0 0.00 0.00 0.00 31 1021.1
20260906191019 83 94 7.0 13.0 0.00 0.00 0.00 31 1021.2
20260906190517 84 112 5.2 13.0 0.00 0.00 0.00 30 1021.2
20260906190040 84 42 7.8 12.2 0.00 0.00 0.00 32 1021.3
20260906185519 83 36 7.0 13.0 0.00 0.00 0.00 32 1021.6
20260906185019 83 123 7.8 13.0 0.00 0.00 0.00 30 1021.6
20260906184540 83 85 5.2 10.4 0.00 0.00 0.00 33 1021.7
20260906184019 84 124 3.5 11.3 0.00 0.00 0.00 32 1021.8
20260906183524 84 95 7.0 12.2 0.00 0.00 0.00 30 1022.1
20260906183041 83 160 6.1 12.2 0.00 0.00 0.00 31 1022.2
20260906182522 83 72 4.3 12.2 0.00 0.00 0.00 33 1022.3
20260906182021 82 72 5.2 11.3 0.00 0.00 0.00 33 1022.4
20260906181543 82 99 5.2 8.7 0.00 0.00 0.00 33 1022.5
20260906181019 82 46 1.7 9.6 0.00 0.00 0.00 32 1022.6
20260906180519 82 122 4.3 9.6 0.00 0.00 0.00 32 1022.8
20260906180042 82 90 4.3 7.8 0.00 0.00 0.00 32 1022.9
20260906175519 83 124 1.7 7.8 0.00 0.00 0.00 32 1023.0
20260906175025 84 120 5.2 8.7 0.00 0.00 0.00 30 1023.1
20260906174542 85 219 1.7 8.7 0.00 0.00 0.00 30 1023.2
20260906174021 84 166 4.3 8.7 0.00 0.00 0.00 30 1023.4
20260906173520 84 229 0.9 5.2 0.00 0.00 0.00 29 1023.4
20260906173038 83 0 1.7 4.3 0.00 0.00 0.00 29 1023.5
20260906172521 83 281 2.6 7.8 0.00 0.00 0.00 29 1023.6
20260906172020 81 218 2.6 7.8 0.00 0.00 0.00 31 1023.7
20260906171538 80 323 1.7 5.2 0.00 0.00 0.00 32 1023.8
20260906171017 79 72 0.9 4.3 0.00 0.00 0.00 34 1023.8
20260906170525 79 314 0.0 5.2 0.00 0.00 0.00 34 1023.9
20260906170049 79 113 3.5 5.2 0.00 0.00 0.00 34 1023.9
20260906165517 79 61 0.9 6.1 0.00 0.00 0.00 35 1024.0
20260906165022 77 187 1.7 9.6 0.00 0.00 0.00 37 1023.9
20260906164544 76 63 3.5 9.6 0.00 0.00 0.00 38 1024.0
20260906164020 75 349 2.6 7.0 0.00 0.00 0.00 41 1024.0
20260906163520 75 359 2.6 9.6 0.00 0.00 0.00 42 1024.1
20260906163049 75 53 3.5 9.6 0.00 0.00 0.00 43 1024.1
20260906162520 75 55 3.5 6.1 0.00 0.00 0.00 44 1024.1
20260906162019 75 347 1.7 6.1 0.00 0.00 0.00 44 1024.2
20260906161540 74 10 0.9 5.2 0.00 0.00 0.00 45 1024.2
20260906161019 74 23 0.9 5.2 0.00 0.00 0.00 44 1024.3
20260906160519 73 359 3.5 5.2 0.00 0.00 0.00 45 1024.3
20260906160048 73 90 2.6 4.3 0.00 0.00 0.00 44 1024.2
20260906155524 74 297 1.7 3.5 0.00 0.00 0.00 44 1024.2
20260906155020 74 10 0.9 3.5 0.00 0.00 0.00 44 1024.2
20260906154537 73 333 0.9 3.5 0.00 0.00 0.00 45 1024.1
20260906154021 73 4 1.7 4.3 0.00 0.00 0.00 45 1024.1
20260906153520 72 360 1.7 4.3 0.00 0.00 0.00 45 1024.0
20260906153043 73 345 1.7 4.3 0.00 0.00 0.00 45 1024.1
20260906152522 72 307 0.9 2.6 0.00 0.00 0.00 48 1024.2
20260906152020 71 0 0.9 2.6 0.00 0.00 0.00 48 1024.0
20260906151540 70 0 0.9 3.5 0.00 0.00 0.00 49 1024.1
20260906151019 70 0 0.0 3.5 0.00 0.00 0.00 51 1024.1
20260906150519 70 8 0.0 2.6 0.00 0.00 0.00 52 1024.3
20260906150052 69 30 0.0 3.5 0.00 0.00 0.00 53 1024.3
20260906145520 68 4 0.9 4.3 0.00 0.00 0.00 58 1024.3
20260906145020 66 1 0.9 4.3 0.00 0.00 0.00 61 1024.3
20260906144556 65 6 1.7 4.3 0.00 0.00 0.00 64 1024.3
20260906144020 65 49 1.7 3.5 0.00 0.00 0.00 65 1024.2
20260906143518 64 77 1.7 3.5 0.00 0.00 0.00 66 1024.3
20260906143039 64 49 0.9 3.5 0.00 0.00 0.00 67 1024.2
20260906142519 64 53 1.7 3.5 0.00 0.00 0.00 67 1024.2
20260906142018 64 52 1.7 4.3 0.00 0.00 0.00 65 1024.3
20260906141545 63 57 1.7 4.3 0.00 0.00 0.00 64 1024.3
20260906141019 64 41 1.7 4.3 0.00 0.00 0.00 61 1024.4
20260906140517 64 85 0.9 3.5 0.00 0.00 0.00 57 1024.4
20260906140040 65 0 0.0 0.0 0.00 0.00 0.00 55 1024.3
20260906135520 64 0 0.0 0.0 0.00 0.00 0.00 56 1024.2
20260906135020 64 0 0.0 0.0 0.00 0.00 0.00 56 1024.2
20260906134542 63 0 0.0 0.0 0.00 0.00 0.00 59 1024.1
20260906134019 62 0 0.0 0.0 0.00 0.00 0.00 58 1024.0
20260906133520 62 0 0.0 0.0 0.00 0.00 0.00 59 1024.0
20260906133036 62 0 0.0 1.7 0.00 0.00 0.00 62 1023.9
20260906132520 61 0 0.0 2.6 0.00 0.00 0.00 63 1023.8
20260906132026 61 36 0.9 2.6 0.00 0.00 0.00 63 1023.8
20260906131538 60 36 0.9 3.5 0.00 0.00 0.00 63 1023.8
20260906131020 60 40 1.7 3.5 0.00 0.00 0.00 62 1023.8
20260906130519 60 46 1.7 4.3 0.00 0.00 0.00 63 1023.8
20260906130047 60 72 2.6 4.3 0.00 0.00 0.00 62 1023.7
20260906125522 60 80 2.6 4.3 0.00 0.00 0.00 61 1023.8
20260906125023 60 78 0.9 3.5 0.00 0.00 0.00 61 1023.7
20260906124538 60 0 0.9 3.5 0.00 0.00 0.00 61 1023.7
20260906124016 60 65 0.9 3.5 0.00 0.00 0.00 61 1023.7
20260906123520 60 0 1.7 3.5 0.00 0.00 0.00 60 1023.6
20260906123038 60 0 1.7 6.1 0.00 0.00 0.00 60 1023.5
20260906122521 61 30 1.7 6.1 0.00 0.00 0.00 60 1023.6
20260906122018 61 41 3.5 6.1 0.00 0.00 0.00 59 1023.6
20260906121538 61 61 1.7 3.5 0.00 0.00 0.00 59 1023.6
20260906121020 61 42 0.0 3.5 0.00 0.00 0.00 59 1023.6
20260906120520 61 60 1.7 3.5 0.00 0.00 0.00 59 1023.6
20260906120048 61 74 0.9 2.6 0.00 0.00 0.00 58 1023.6
20260906115521 61 0 0.0 0.0 0.00 0.00 0.00 58 1023.6
20260906115019 61 0 0.0 0.0 0.00 0.00 0.00 57 1023.6
20260906114541 61 0 0.0 0.0 0.00 0.00 0.00 57 1023.6
20260906114021 61 0 0.0 0.0 0.00 0.00 0.00 57 1023.6
20260906113521 62 0 0.0 0.0 0.00 0.00 0.00 56 1023.6
20260906113038 62 0 0.0 0.0 0.00 0.00 0.00 55 1023.5
20260906112520 62 0 0.0 0.0 0.00 0.00 0.00 54 1023.4
20260906112021 63 0 0.0 0.0 0.00 0.00 0.00 54 1023.4
20260906111544 63 0 0.0 0.0 0.00 0.00 0.00 54 1023.3
20260906111019 62 0 0.0 0.0 0.00 0.00 0.00 54 1023.4
20260906110520 63 0 0.0 0.0 0.00 0.00 0.00 53 1023.4
20260906110044 64 0 0.0 2.6 0.00 0.00 0.00 52 1023.4
20260906105519 64 0 0.0 3.5 0.00 0.00 0.00 52 1023.4
20260906105021 64 0 1.7 3.5 0.00 0.00 0.00 52 1023.3
20260906104545 64 89 0.0 2.6 0.00 0.00 0.00 52 1023.2
20260906104016 63 0 0.0 2.6 0.00 0.00 0.00 53 1023.2
20260906103522 63 0 0.0 3.5 0.00 0.00 0.00 54 1023.2
20260906103036 62 147 0.9 3.5 0.00 0.00 0.00 54 1023.2
20260906102521 63 136 2.6 3.5 0.00 0.00 0.00 54 1023.2
20260906102021 63 136 1.7 3.5 0.00 0.00 0.00 53 1023.2
20260906101537 62 0 0.0 2.6 0.00 0.00 0.00 54 1023.2
20260906101020 63 155 0.9 2.6 0.00 0.00 0.00 54 1023.2
20260906100520 63 155 1.7 2.6 0.00 0.00 0.00 53 1023.2
20260906100044 63 155 0.9 2.6 0.00 0.00 0.00 53 1023.2
20260906095519 63 155 0.9 2.6 0.00 0.00 0.00 53 1023.2
20260906095021 63 0 0.0 1.7 0.00 0.00 0.00 52 1023.3
20260906094605 64 0 0.0 1.7 0.00 0.00 0.00 52 1023.2
20260906094021 64 0 0.0 2.6 0.00 0.00 0.00 52 1023.0
20260906093519 64 0 0.9 2.6 0.00 0.00 0.00 51 1023.1
20260906093039 64 155 0.0 0.9 0.00 0.00 0.00 50 1023.1
20260906092520 65 0 0.0 2.6 0.00 0.00 0.00 50 1023.1
20260906092021 65 0 0.0 2.6 0.00 0.00 0.00 50 1023.1
20260906091545 65 155 1.7 2.6 0.00 0.00 0.00 50 1023.1
20260906091019 66 155 0.9 2.6 0.00 0.00 0.00 48 1023.0
20260906090521 66 0 0.0 0.0 0.00 0.00 0.00 48 1023.0
20260906090037 66 0 0.0 0.9 0.00 0.00 0.00 48 1023.0
20260906085520 66 0 0.0 0.9 0.00 0.00 0.00 48 1022.9
20260906085021 66 155 0.0 2.6 0.00 0.00 0.00 48 1022.9
20260906084540 66 0 0.9 2.6 0.00 0.00 0.00 48 1022.9
20260906084020 66 155 1.7 2.6 0.00 0.00 0.00 48 1022.8
20260906083521 65 155 1.7 3.5 0.00 0.00 0.00 49 1023.0
20260906083037 65 155 0.9 3.5 0.00 0.00 0.00 49 1023.0
20260906082519 65 147 1.7 3.5 0.00 0.00 0.00 49 1023.0
20260906082024 65 143 1.7 3.5 0.00 0.00 0.00 49 1023.0
20260906081547 65 148 2.6 3.5 0.00 0.00 0.00 49 1023.0
20260906081019 65 166 0.9 3.5 0.00 0.00 0.00 49 1023.0
20260906080523 65 166 2.6 5.2 0.00 0.00 0.00 49 1023.1
20260906080049 65 169 2.6 5.2 0.00 0.00 0.00 50 1023.2
20260906075517 65 174 2.6 4.3 0.00 0.00 0.00 50 1023.2
20260906075020 65 186 2.6 4.3 0.00 0.00 0.00 51 1023.2
20260906074538 64 172 1.7 4.3 0.00 0.00 0.00 51 1023.2
20260906074016 64 176 2.6 4.3 0.00 0.00 0.00 52 1023.2
20260906073519 64 174 2.6 4.3 0.00 0.00 0.00 53 1023.1
20260906073039 64 185 1.7 3.5 0.00 0.00 0.00 53 1023.2
20260906072521 64 170 2.6 3.5 0.00 0.00 0.00 53 1023.2
20260906072020 64 169 2.6 3.5 0.00 0.00 0.00 53 1023.2
20260906071537 65 181 1.7 2.6 0.00 0.00 0.00 52 1023.2
20260906071018 65 139 0.9 2.6 0.00 0.00 0.00 51 1023.2
20260906070524 66 0 0.0 0.0 0.00 0.00 0.00 50 1023.2
20260906070040 66 0 0.0 0.0 0.00 0.00 0.00 50 1023.2
20260906065519 66 0 0.0 0.0 0.00 0.00 0.00 50 1023.0
20260906065017 66 0 0.0 2.6 0.00 0.00 0.00 50 1023.0
20260906064538 66 0 0.9 2.6 0.00 0.00 0.00 50 1023.0
20260906064018 66 139 0.9 2.6 0.00 0.00 0.00 50 1023.1
20260906063521 66 139 0.9 2.6 0.00 0.00 0.00 50 1023.2
20260906063037 66 141 1.7 2.6 0.00 0.00 0.00 51 1023.2
20260906062522 67 165 1.7 2.6 0.00 0.00 0.00 51 1023.2
20260906062020 68 0 0.0 2.6 0.00 0.00 0.00 52 1023.2
20260906061543 68 300 0.0 2.6 0.00 0.00 0.00 49 1023.2
20260906061018 68 0 0.0 2.6 0.00 0.00 0.00 48 1023.2
20260906060521 68 313 0.9 5.2 0.00 0.00 0.00 48 1023.4
20260906060040 69 301 0.0 7.0 0.00 0.00 0.00 48 1023.5
20260906055519 69 359 4.3 7.0 0.00 0.00 0.00 47 1023.4
20260906055019 69 4 2.6 4.3 0.00 0.00 0.00 48 1023.5
20260906054537 70 325 0.0 3.5 0.00 0.00 0.00 48 1023.5
20260906054021 70 0 0.0 5.2 0.00 0.00 0.00 50 1023.5
20260906053519 71 345 1.7 6.1 0.00 0.00 0.00 48 1023.4
20260906053038 71 35 2.6 11.3 0.00 0.00 0.00 45 1023.4
20260906052518 73 339 6.1 11.3 0.00 0.00 0.00 45 1023.6
20260906052019 73 34 1.7 4.3 0.00 0.00 0.00 50 1023.2
20260906051540 73 75 1.7 4.3 0.00 0.00 0.00 50 1023.4
20260906051019 73 90 2.6 4.3 0.00 0.00 0.00 51 1023.3
20260906050519 72 94 1.7 5.2 0.00 0.00 0.00 51 1023.4
20260906050042 72 118 0.9 5.2 0.00 0.00 0.00 51 1023.4
20260906045520 72 108 1.7 3.5 0.00 0.00 0.00 51 1023.4
20260906045018 73 84 0.9 3.5 0.00 0.00 0.00 50 1023.4
20260906044544 73 92 0.9 4.3 0.00 0.00 0.00 50 1023.5
20260906044021 73 79 0.0 4.3 0.00 0.00 0.00 51 1023.5
20260906043522 73 115 2.6 4.3 0.00 0.00 0.00 50 1023.4
20260906043043 73 91 1.7 4.3 0.00 0.00 0.00 50 1023.4
20260906042551 74 122 1.7 4.3 0.00 0.00 0.00 49 1023.4
20260906042019 74 91 2.6 4.3 0.00 0.00 0.00 50 1023.5
20260906041541 74 88 2.6 4.3 0.00 0.00 0.00 49 1023.4
20260906041024 74 91 2.6 4.3 0.00 0.00 0.00 49 1023.5
20260906040523 74 91 2.6 3.5 0.00 0.00 0.00 49 1023.5
20260906040041 74 98 0.0 3.5 0.00 0.00 0.00 48 1023.5
20260906035523 74 0 0.0 3.5 0.00 0.00 0.00 47 1023.4
20260906035024 75 220 1.7 6.1 0.00 0.00 0.00 46 1023.5
20260906034543 75 174 3.5 7.0 0.00 0.00 0.00 46 1023.4
20260906034021 75 174 3.5 8.7 0.00 0.00 0.00 45 1023.4
20260906033519 75 200 5.2 8.7 0.00 0.00 0.00 39 1023.4
20260906033040 76 144 0.0 10.4 0.00 0.00 0.00 32 1023.2
20260906032524 75 144 0.9 14.8 0.00 0.00 0.00 32 1023.2
20260906032019 75 153 7.8 14.8 0.00 0.00 0.00 32 1023.5
20260906031548 72 152 10.4 14.8 0.00 0.00 0.00 35 1023.3
20260906031018 71 166 3.5 5.2 0.00 0.00 0.00 36 1022.7
20260906030520 72 124 2.6 8.7 0.00 0.00 0.00 35 1022.3
20260906030039 72 0 0.9 8.7 0.00 0.00 0.00 34 1022.3
20260906025521 73 342 6.1 8.7 0.00 0.00 0.00 34 1022.2
20260906025020 73 155 2.6 4.3 0.00 0.00 0.00 33 1021.9
20260906024542 74 160 3.5 4.3 0.00 0.00 0.00 32 1021.8
20260906024025 75 172 2.6 4.3 0.00 0.00 0.00 31 1021.7
20260906023521 76 184 1.7 3.5 0.00 0.00 0.00 30 1021.6
20260906023042 76 226 1.7 3.5 0.00 0.00 0.00 30 1021.7
20260906022521 76 130 0.9 2.6 0.00 0.00 0.00 29 1021.7
20260906022018 76 130 1.7 2.6 0.00 0.00 0.00 29 1021.7
20260906021540 75 131 1.7 2.6 0.00 0.00 0.00 30 1021.7
20260906021019 74 131 1.7 4.3 0.00 0.00 0.00 31 1021.6
20260906020520 74 137 1.7 4.3 0.00 0.00 0.00 31 1021.6
20260906020049 75 131 2.6 4.3 0.00 0.00 0.00 30 1021.5
20260906015526 76 130 2.6 4.3 0.00 0.00 0.00 29 1021.4
20260906015021 77 136 1.7 4.3 0.00 0.00 0.00 29 1021.4
20260906014548 77 134 2.6 4.3 0.00 0.00 0.00 28 1021.4
20260906014022 78 141 2.6 6.1 0.00 0.00 0.00 28 1021.3
20260906013520 78 135 2.6 6.1 0.00 0.00 0.00 27 1021.3
20260906013041 78 159 4.3 6.1 0.00 0.00 0.00 27 1021.3
20260906012520 79 150 3.5 6.1 0.00 0.00 0.00 27 1021.2
20260906012157 80 155 3.5 6.1 0.00 0.00 0.00 27 1021.2
20260906011540 81 171 3.5 8.7 0.00 0.00 0.00 26 1021.2
20260906011022 81 186 5.2 8.7 0.00 0.00 0.00 25 1021.3
20260906010520 82 208 4.3 8.7 0.00 0.00 0.00 25 1021.3
20260906010041 83 208 3.5 7.8 0.00 0.00 0.00 24 1021.3
20260906005517 83 220 3.5 8.7 0.00 0.00 0.00 24 1021.3
20260906005018 83 169 4.3 8.7 0.00 0.00 0.00 23 1021.4
20260906004646 84 229 4.3 12.2 0.00 0.00 0.00 23 1021.3
20260906004024 85 209 7.0 12.2 0.00 0.00 0.00 22 1021.4
20260906003519 85 217 5.2 8.7 0.00 0.00 0.00 22 1021.4
20260906003043 85 198 5.2 11.3 0.00 0.00 0.00 22 1021.4
20260906002521 85 226 4.3 11.3 0.00 0.00 0.00 22 1021.3
20260906002021 85 200 5.2 11.3 0.00 0.00 0.00 22 1021.3
20260906001539 85 246 7.0 11.3 0.00 0.00 0.00 23 1021.3
20260906001019 85 204 7.0 11.3 0.00 0.00 0.00 22 1021.3
20260906000519 85 188 6.1 11.3 0.00 0.00 0.00 23 1021.3
20260906000040 85 210 7.0 11.3 0.00 0.00 0.00 23 1021.2
20260905235520 85 188 6.1 11.3 0.00 0.00 0.00 23 1021.2
20260905235019 85 198 5.2 13.0 0.00 0.00 0.00 22 1021.2
20260905234536 85 200 7.0 13.0 0.00 0.00 0.00 23 1021.1
20260905234026 86 209 7.8 13.0 0.00 0.00 0.00 23 1021.2
20260905233520 86 160 7.0 13.0 0.00 0.00 0.00 23 1021.2
20260905233038 86 231 8.7 14.8 0.00 0.00 0.00 23 1021.0
20260905232521 85 178 7.8 14.8 0.00 0.00 0.00 24 1021.0
20260905232021 85 206 9.6 14.8 0.00 0.00 0.00 23 1021.1
20260905231536 85 138 9.6 13.9 0.00 0.00 0.00 24 1021.2
20260905231018 85 160 6.1 9.6 0.00 0.00 0.00 23 1021.2
20260905230521 85 115 4.3 9.6 0.00 0.00 0.00 23 1021.1
20260905230045 84 113 4.3 8.7 0.00 0.00 0.00 23 1021.1
20260905225520 84 121 3.5 6.1 0.00 0.00 0.00 22 1021.1
20260905225020 85 58 0.9 10.4 0.00 0.00 0.00 22 1021.0
20260905224537 85 110 2.6 15.6 0.00 0.00 0.00 22 1021.0
20260905224019 86 134 7.8 15.6 0.00 0.00 0.00 21 1021.0
20260905223521 86 64 6.1 10.4 0.00 0.00 0.00 22 1021.0
20260905223045 86 45 5.2 9.6 0.00 0.00 0.00 21 1021.1
20260905222521 85 83 1.7 8.7 0.00 0.00 0.00 21 1021.1
20260905222027 85 18 3.5 7.0 0.00 0.00 0.00 22 1021.1